Flag for Brazil Weather past 2 weeks in Cuiabá, Mato Grosso, Brazil

Now
90 °F

Scattered clouds.


Feels Like: 95 °F
Forecast: 71 / 89 °F
Wind: 12 mph from Northeast

Location: Cuiaba Aeroporto

Current Time: May 22, 2015 at 3:17:47 PM

Latest Report: May 22, 2015 at 3:00 PM


Visibility: N/A

Pressure: 29.92 "Hg

Humidity: 52%

Dew point: 70 °F

Location of CuiabáLocation

Historic Weather in Cuiabá — Graph

°F

Cuiabá temperature yesterday

Maximum temperature yesterday: 90 °F (at 2:00 PM)
Minimum temperature yesterday: 72 °F (at 2:00 AM)
Average temperature yesterday: 79 °F

Past Weeks' High & Low Weather Summary

 TemperatureHumidityPressure
High91 °F (May 9, 2:00 PM)100% (May 8, 5:00 AM)30.09 "Hg (May 8, 5:00 AM)
Low68 °F (May 14, 6:00 AM)44% (May 9, 2:00 PM)29.86 "Hg (May 9, 4:00 PM)
Average78 °F80%29.98 "Hg
* Reported May 7 2:00 PM — May 22 2:00 PM, Cuiabá, Weather by CustomWeather, © 2015

Note: Actual official high and low records may vary slightly from our data, if they occured in-between our weather recording intervals... More about our weather records

Advertising

Cuiabá weather history for previous 24 hours

 ConditionsComfort  
Time TempWeatherWind HumidityBarometerVisibility
2:00 PM
Fri, May 22
91 °FPartly sunny.9 mph49%29.95 "HgN/A
1:00 PM91 °FPartly sunny.13 mph46%29.98 "HgN/A
12:00 PM90 °FPartly sunny.10 mph55%30.01 "HgN/A
11:00 AM88 °FPartly sunny.12 mph55%30.04 "HgN/A
10:00 AM86 °FSunny.6 mph62%30.04 "Hg10 mi
9:00 AM82 °FSunny.3 mph70%30.04 "Hg10 mi
8:00 AM79 °FSunny.2 mph79%30.04 "Hg10 mi
7:00 AM75 °FSunny.6 mph89%30.01 "Hg10 mi
6:00 AM73 °FPassing clouds.6 mph89%30.01 "HgN/A
5:00 AM72 °FPassing clouds.3 mph94%29.98 "HgN/A
4:00 AM72 °FPassing clouds.3 mph94%29.98 "HgN/A
3:00 AM72 °FPassing clouds.2 mph94%29.98 "HgN/A
2:00 AM73 °FPassing clouds.5 mph89%29.98 "HgN/A
1:00 AM72 °FPassing clouds.3 mph94%29.98 "HgN/A
12:00 AM73 °FPassing clouds.No wind89%29.98 "HgN/A
11:00 PM
Thu, May 21
73 °FPassing clouds.2 mph89%29.98 "HgN/A
10:00 PM75 °FPartly cloudy.6 mph83%30.01 "HgN/A
9:00 PM75 °FPassing clouds.2 mph78%29.98 "HgN/A
8:00 PM75 °FPassing clouds.6 mph83%29.98 "HgN/A
7:00 PM81 °FPassing clouds.6 mph66%29.95 "HgN/A
6:00 PM82 °FPassing clouds.6 mph66%29.92 "HgN/A
5:00 PM86 °FScattered clouds.3 mph59%29.92 "HgN/A
4:00 PM88 °FScattered clouds.6 mph55%29.92 "HgN/A
3:00 PM90 °FScattered clouds.13 mph52%29.92 "HgN/A
Weather by CustomWeather, © 2015

See weather overviewHow to use our weather pages